Weather observations for the past three days for
Millville, Millville Municipal Airport
Imperial (Metric)
Date Time (edt) Wind (mph) Vis. (mi.) Weather Sky Cond. Temperature (ºF) Relative Humidity Wind Chill (°F) Heat Index (°F) Pressure Precipitation (in)
Air Dwpt 6 hour altimeter (in) sea level (mb) 1 hr 3 hr 6 hr
Max. Min.
15 03:54 NW 5 10.00 Fair CLR 64 61 90% 29.89 1012.1
15 02:54 NW 6 10.00 Fair CLR 64.9 62.1 90% 29.9 1012.2
15 01:54 Calm 10.00 Overcast OVC110 66 63 73 66 90% 29.89 1011.9 0.01 0.01
15 00:54 W 9 10.00 Overcast OVC070 66.9 63 87% 29.91 1012.8
14 23:54 NE 3 10.00 NULL NULL 70 59 68% 29.9 1012.3
14 22:54 E 6 10.00 Overcast OVC055 70 59 68% 29.89 1012.1
14 21:54 E 7 10.00 Mostly Cloudy SCT095 BKN120 71.1 57.9 63% 29.88 1011.7
14 20:54 NE 8 10.00 Fair CLR 71.1 57 61% 29.86 1011.0
14 18:54 Vrbl 5 10.00 Fair CLR 77 64.9 66% 79 29.84 1010.2
14 17:54 Vrbl 7 10.00 Partly Cloudy SCT055 81 60.1 49% 82 29.81 1009.4
14 16:54 Vrbl 7 10.00 A Few Clouds FEW060 82.9 64.9 55% 85 29.82 1009.7
14 15:54 S 8 10.00 Fair CLR 87.1 62.1 43% 88 29.83 1009.7
14 14:54 W 8 10.00 Fair CLR 88 64 45% 89 29.85 1010.5
14 13:54 Vrbl 7 10.00 Fair CLR 88 64.9 88 73.9 46% 90 29.86 1011.0
14 12:54 SW 8 10.00 Fair CLR 86 64 48% 87 29.88 1011.8
14 11:54 W 10 G 17 10.00 Fair CLR 84 66 55% 86 29.91 1012.6
14 10:54 SW 8 10.00 Fair CLR 81 66 61% 83 29.93 1013.2
14 09:54 SW 8 10.00 Fair CLR 79 66.9 67% 81 29.92 1013.1
14 08:54 SW 8 10.00 Fair CLR 77 66.9 71% 79 29.93 1013.3
14 07:54 Calm 10.00 Fair CLR 73.9 66.9 73.9 69.1 79% 29.93 1013.2
14 06:54 S 5 10.00 Fair CLR 71.1 64.9 81% 29.92 1013.0
14 05:54 SW 5 10.00 Mostly Cloudy BKN100 70 64.9 84% 29.92 1012.9
14 04:54 S 5 10.00 Mostly Cloudy FEW070 SCT085 BKN110 70 64 82% 29.92 1013.0
14 03:54 Vrbl 5 10.00 Overcast OVC100 70 64 82% 29.93 1013.4
14 02:54 Calm 10.00 Mostly Cloudy BKN100 69.1 64 84% 29.94 1013.6
14 01:54 S 5 10.00 Fair CLR 69.1 64 73.9 69.1 84% 29.94 1013.8
14 00:54 Calm 10.00 Fair CLR 70 64 82% 29.97 1014.6
13 23:54 Vrbl 3 10.00 Fair CLR 70 64 82% 29.98 1014.9
13 22:54 Vrbl 3 10.00 Fair CLR 72 63 73% 29.99 1015.2
13 21:54 Vrbl 5 10.00 Fair CLR 72 63 73% 29.99 1015.2
13 20:54 Vrbl 7 10.00 Fair CLR 73 62.1 69% 29.98 1014.9
13 19:54 Vrbl 7 G 18 10.00 Fair CLR 75 61 84.9 75 62% 77 29.98 1015.1
13 18:54 S 8 G 22 10.00 Fair CLR 77 59 54% 79 29.98 1015.0
13 17:54 S 10 G 20 10.00 Mostly Cloudy BKN050 BKN060 79 59 50% 80 29.98 1015.1
13 16:54 SE 9 G 23 10.00 Partly Cloudy SCT055 79 60.1 52% 80 29.99 1015.5
13 15:54 SE 13 G 21 10.00 Fair CLR 82 60.1 47% 82 30 1015.6
13 14:54 S 10 G 20 10.00 Fair CLR 84 61 46% 84 30.01 1016.0
13 13:54 S 8 10.00 Fair CLR 82.9 59 84.9 71.1 44% 83 30.02 1016.3
13 12:54 Vrbl 5 G 16 10.00 A Few Clouds FEW043 84 60.1 44% 84 30.03 1016.6
13 11:54 Vrbl 5 10.00 A Few Clouds FEW038 FEW048 82 62.1 51% 83 30.04 1017.1
13 10:54 Vrbl 6 10.00 Fair CLR 80.1 63 56% 81 30.05 1017.3
13 09:54 Vrbl 7 10.00 Fair CLR 77 64.9 66% 79 30.05 1017.4
13 08:54 Vrbl 3 10.00 Fair CLR 75 66 74% 76 30.06 1017.8
13 07:54 Calm 10.00 Fair CLR 71.1 64.9 71.1 54 81% 30.05 1017.5
13 06:54 Calm 10.00 Fair CLR 61 57.9 90% 30.05 1017.5
13 05:54 Calm 9.00 Fair CLR 55 54 96% 30.04 1017.0
13 04:54 Calm 10.00 Fair CLR 54 52 93% 30.02 1016.3
13 03:54 Calm 10.00 Fair CLR 55 53.1 93% 30.01 1016.1
13 02:54 Calm 10.00 Fair CLR 57 55.9 96% 30.01 1016.2
13 01:54 Calm 10.00 Fair CLR 57 54 71.1 57 90% 30.02 1016.5
13 00:54 Calm 10.00 Fair CLR 57.9 55 90% 30.03 1016.6
12 23:54 Calm 10.00 Fair CLR 59 55.9 90% 30.03 1016.7
12 22:54 Calm 10.00 Fair CLR 61 55.9 84% 30.03 1016.9
12 21:54 Calm 10.00 Fair CLR 66.9 57 71% 30.03 1016.8
12 20:54 Vrbl 3 8.00 Fair CLR 68 57 68% 30.02 1016.3
12 19:54 Calm 10.00 Fair CLR 72 55.9 81 72 57% 30.01 1016.1
12 18:54 Vrbl 5 10.00 A Few Clouds FEW065 77 52 42% 78 30 1015.8
12 17:54 W 9 G 17 10.00 Fair CLR 79 48 34% 79 30 1015.6
12 16:54 W 8 10.00 Partly Cloudy SCT060 79 48.9 35% 79 30.01 1016.0
12 15:54 NW 7 10.00 Partly Cloudy SCT060 79 50 36% 79 30.01 1016.0
12 14:54 W 9 10.00 A Few Clouds FEW060 79 50 36% 79 30.02 1016.3
12 13:54 NW 13 G 17 10.00 Mostly Cloudy BKN060 77 50 80.1 64.9 39% 78 30.03 1016.8
12 12:54 Calm 10.00 A Few Clouds FEW055 77 50 39% 78 30.04 1017.0
12 11:54 Calm 10.00 A Few Clouds FEW049 75 51.1 43% 78 30.05 1017.3
12 10:54 W 6 10.00 A Few Clouds FEW043 73.9 53.1 48% 30.05 1017.3
12 09:54 W 6 10.00 Fair CLR 72 55 55% 30.06 1017.6
12 08:54 W 5 10.00 Fair CLR 70 55.9 61% 30.06 1017.7
12 07:54 Calm 10.00 Fair CLR 66 57.9 66 50 75% 30.05 1017.5
12 06:54 Calm 10.00 Fair CLR 57.9 55.9 93% 30.05 1017.5
12 05:54 Calm 8.00 Fair CLR 53.1 52 96% 30.04 1017.0
Date Time (edt) Wind (mph) Vis. (mi.) Weather Sky Cond. Air Dwpt Max. Min. Relative Humidity Wind Chill (°F) Heat Index (°F) altimeter (in) sea level (mb) 1 hr 3 hr 6 hr
6 hour
Temperature (ºF) Pressure Precipitation (in)